06-12-2023, 00:00:01,    315,    0.0,    2.2,   0.00,   0.00, 1013.1,    0.4, -999.0
06-12-2023, 00:00:10,    315,    0.0,    2.2,   0.00,   0.00, 1013.1,    0.9, -999.0
06-12-2023, 00:00:21,    315,    0.0,    2.2,   0.00,   0.00, 1013.1,    0.0, -999.0
06-12-2023, 00:00:31,    315,    0.0,    2.2,   0.00,   0.00, 1013.1,    0.0, -999.0
06-12-2023, 00:00:41,    315,    0.0,    2.2,   0.00,   0.00, 1013.1,    0.4, -999.0
06-12-2023, 00:00:50,    315,    0.0,    2.2,   0.00,   0.00, 1013.1,    0.5, -999.0
06-12-2023, 00:01:01,    315,    0.0,    2.2,   0.00,   0.00, 1013.1,    0.4, -999.0
06-12-2023, 00:01:11,    315,    0.0,    2.2,   0.00,   0.00, 1013.1,    0.5, -999.0
06-12-2023, 00:01:20,    313,    0.0,    2.1,   0.00,   0.00, 1013.1,    0.5, -999.0
06-12-2023, 00:01:30,    315,    0.0,    2.1,   0.00,   0.00, 1013.1,    0.3, -999.0
06-12-2023, 00:01:41,    315,    0.0,    2.1,   0.00,   0.00, 1013.1,    0.4, -999.0
06-12-2023, 00:01:50,    315,    0.0,    2.1,   0.00,   0.00, 1013.1,    0.7, -999.0
06-12-2023, 00:02:01,    315,    0.0,    2.1,   0.00,   0.00, 1013.1,    0.5, -999.0
06-12-2023, 00:02:11,    315,    0.0,    2.1,   0.00,   0.00, 1013.1,    0.5, -999.0
06-12-2023, 00:02:21,    315,    0.0,    2.2,   0.00,   0.00, 1013.1,    0.6, -999.0
06-12-2023, 00:02:30,    315,    0.0,    2.2,   0.00,   0.00, 1013.1,    0.7, -999.0
06-12-2023, 00:02:40,    315,    0.0,    2.1,   0.00,   0.00, 1013.2,    0.2, -999.0
06-12-2023, 00:02:50,    315,    0.0,    2.1,   0.00,   0.00, 1013.2,    0.4, -999.0
06-12-2023, 00:03:01,    315,    0.0,    2.1,   0.00,   0.00, 1013.2,    0.5, -999.0
06-12-2023, 00:03:10,    315,    0.0,    2.2,   0.00,   0.00, 1013.1,    0.5, -999.0
06-12-2023, 00:03:20,    315,    0.0,    2.1,   0.00,   0.00, 1013.2,    0.6, -999.0
06-12-2023, 00:03:31,    315,    0.0,    2.1,   0.00,   0.00, 1013.1,    0.4, -999.0
06-12-2023, 00:03:40,    315,    0.0,    2.1,   0.00,   0.00, 1013.2,    0.3, -999.0
06-12-2023, 00:03:50,    315,    0.0,    2.1,   0.00,   0.00, 1013.1,    0.4, -999.0
06-12-2023, 00:04:00,    315,    0.0,    2.1,   0.00,   0.00, 1013.2,    0.5, -999.0
06-12-2023, 00:04:11,    315,    0.0,    2.0,   0.00,   0.00, 1013.1,    0.6, -999.0
06-12-2023, 00:04:20,    315,    0.0,    2.1,   0.00,   0.00, 1013.1,    0.3, -999.0
06-12-2023, 00:04:30,    315,    0.0,    2.1,   0.00,   0.00, 1013.2,    0.6, -999.0
06-12-2023, 00:04:40,    315,    0.0,    2.1,   0.00,   0.00, 1013.2,    0.6, -999.0
06-12-2023, 00:04:50,    315,    0.0,    2.1,   0.00,   0.00, 1013.2,    0.6, -999.0
06-12-2023, 00:05:00,    315,    0.0,    2.1,   0.00,   0.00, 1013.2,    0.6, -999.0
06-12-2023, 00:05:10,    315,    0.0,    2.1,   0.00,   0.00, 1013.2,    0.4, -999.0
06-12-2023, 00:05:20,    315,    0.0,    2.1,   0.00,   0.00, 1013.2,    0.4, -999.0
06-12-2023, 00:05:30,    315,    0.0,    2.1,   0.00,   0.00, 1013.2,    0.5, -999.0
06-12-2023, 00:05:40,    315,    0.0,    2.1,   0.00,   0.00, 1013.2,    0.8, -999.0
06-12-2023, 00:05:50,    315,    0.0,    2.1,   0.00,   0.00, 1013.2,    0.4, -999.0
06-12-2023, 00:06:00,    315,    0.0,    2.1,   0.00,   0.00, 1013.2,    0.6, -999.0
06-12-2023, 00:06:10,    315,    0.0,    2.1,   0.00,   0.00, 1013.2,    0.4, -999.0
06-12-2023, 00:06:20,    315,    0.0,    2.1,   0.00,   0.00, 1013.2,    0.5, -999.0
06-12-2023, 00:06:30,    315,    0.0,    2.0,   0.00,   0.00, 1013.2,    0.5, -999.0
06-12-2023, 00:06:40,    315,    0.0,    2.1,   0.00,   0.00, 1013.2,    0.5, -999.0
06-12-2023, 00:06:50,    315,    0.0,    2.1,   0.00,   0.00, 1013.2,    0.8, -999.0
06-12-2023, 00:07:00,    315,    0.0,    2.0,   0.00,   0.00, 1013.2,    0.5, -999.0
06-12-2023, 00:07:10,    315,    0.0,    2.0,   0.00,   0.00, 1013.2,    0.7, -999.0
06-12-2023, 00:07:20,    315,    0.0,    2.1,   0.00,   0.00, 1013.2,    0.3, -999.0
06-12-2023, 00:07:30,    315,    0.0,    2.1,   0.00,   0.00, 1013.2,    0.4, -999.0
06-12-2023, 00:07:40,    315,    0.0,    2.1,   0.00,   0.00, 1013.2,    0.5, -999.0
06-12-2023, 00:07:50,    315,    0.0,    2.0,   0.00,   0.00, 1013.2,    0.6, -999.0
06-12-2023, 00:08:00,    316,    0.0,    2.1,   0.00,   0.00, 1013.2,    0.7, -999.0
06-12-2023, 00:08:10,    315,    0.0,    2.1,   0.00,   0.00, 1013.2,    0.4, -999.0
06-12-2023, 00:08:20,    315,    0.0,    2.1,   0.00,   0.00, 1013.2,    0.4, -999.0
06-12-2023, 00:08:30,    315,    0.0,    2.1,   0.00,   0.00, 1013.2,    0.5, -999.0
06-12-2023, 00:08:40,    315,    0.0,    2.1,   0.00,   0.00, 1013.2,    0.5, -999.0
06-12-2023, 00:08:50,    315,    0.0,    2.1,   0.00,   0.00, 1013.2,    0.6, -999.0
06-12-2023, 00:09:00,    315,    0.0,    2.1,   0.00,   0.00, 1013.2,    0.6, -999.0
06-12-2023, 00:09:10,    315,    0.0,    2.1,   0.00,   0.00, 1013.2,    0.4, -999.0
06-12-2023, 00:09:20,    315,    0.0,    2.1,   0.00,   0.00, 1013.2,    0.5, -999.0
06-12-2023, 00:09:30,    315,    0.0,    2.1,   0.00,   0.00, 1013.2,    0.7, -999.0
06-12-2023, 00:09:40,    315,    0.0,    2.1,   0.00,   0.00, 1013.2,    0.6, -999.0
06-12-2023, 00:09:50,    315,    0.0,    2.0,   0.00,   0.00, 1013.2,    0.6, -999.0
06-12-2023, 00:09:59,    315,    0.0,    2.1,   0.00,   0.00, 1013.2,    0.4, -999.0
06-12-2023, 00:10:10,    315,    0.0,    2.1,   0.00,   0.00, 1013.2,    0.7, -999.0
06-12-2023, 00:10:20,    315,    0.0,    2.1,   0.00,   0.00, 1013.2,    0.5, -999.0
06-12-2023, 00:10:30,    315,    0.0,    2.1,   0.00,   0.00, 1013.2,    0.5, -999.0
06-12-2023, 00:10:39,    315,    0.0,    2.2,   0.00,   0.00, 1013.2,    0.4, -999.0
06-12-2023, 00:10:50,    315,    0.0,    2.1,   0.00,   0.00, 1013.2,    0.6, -999.0
06-12-2023, 00:11:00,    315,    0.0,    2.0,   0.00,   0.00, 1013.2,    0.5, -999.0
06-12-2023, 00:11:09,    315,    0.0,    2.1,   0.00,   0.00, 1013.2,    0.4, -999.0
06-12-2023, 00:11:19,    315,    0.0,    2.1,   0.00,   0.00, 1013.3,    0.7, -999.0
06-12-2023, 00:11:30,    315,    0.0,    2.1,   0.00,   0.00, 1013.2,    0.4, -999.0
06-12-2023, 00:11:40,    315,    0.0,    2.1,   0.00,   0.00, 1013.2,    0.4, -999.0
06-12-2023, 00:11:49,    315,    0.0,    2.1,   0.00,   0.00, 1013.3,    0.5, -999.0
06-12-2023, 00:12:00,    315,    0.2,    2.1,   0.00,   0.00, 1013.4,    0.3, -999.0
06-12-2023, 00:12:10,    315,    0.3,    2.1,   0.00,   0.00, 1013.3,    0.3, -999.0
06-12-2023, 00:12:19,    315,    0.0,    2.1,   0.00,   0.00, 1013.3,    0.6, -999.0
06-12-2023, 00:12:29,    315,    0.0,    2.0,   0.00,   0.00, 1013.3,    0.6, -999.0
06-12-2023, 00:12:40,    315,    0.0,    2.0,   0.00,   0.00, 1013.3,    0.4, -999.0
06-12-2023, 00:12:49,    314,    0.1,    2.1,   0.00,   0.00, 1013.3,    0.6, -999.0
06-12-2023, 00:12:59,    315,    0.0,    2.0,   0.00,   0.00, 1013.2,    0.6, -999.0
06-12-2023, 00:13:09,    314,    0.0,    2.0,   0.00,   0.00, 1013.3,    0.6, -999.0
06-12-2023, 00:13:20,    315,    0.0,    2.1,   0.00,   0.00, 1013.3,    0.6, -999.0
06-12-2023, 00:13:29,    315,    0.0,    2.0,   0.00,   0.00, 1013.3,    0.4, -999.0
06-12-2023, 00:13:39,    315,    0.0,    2.1,   0.00,   0.00, 1013.3,    0.5, -999.0
06-12-2023, 00:13:49,    314,    0.1,    2.1,   0.00,   0.00, 1013.2,    0.6, -999.0
06-12-2023, 00:13:59,    315,    0.0,    2.0,   0.00,   0.00, 1013.3,    0.6, -999.0
06-12-2023, 00:14:09,    315,    0.0,    2.0,   0.00,   0.00, 1013.3,    0.5, -999.0
06-12-2023, 00:14:19,    315,    0.0,    2.0,   0.00,   0.00, 1013.2,    0.6, -999.0
06-12-2023, 00:14:29,    315,    0.0,    2.0,   0.00,   0.00, 1013.3,    0.5, -999.0
06-12-2023, 00:14:39,    315,    0.0,    2.0,   0.00,   0.00, 1013.3,    0.4, -999.0
06-12-2023, 00:14:49,    315,    0.0,    2.0,   0.00,   0.00, 1013.3,    0.5, -999.0
06-12-2023, 00:14:59,    315,    0.0,    2.0,   0.00,   0.00, 1013.3,    0.5, -999.0
06-12-2023, 00:15:09,    315,    0.0,    2.0,   0.00,   0.00, 1013.2,    0.4, -999.0
06-12-2023, 00:15:19,    315,    0.0,    2.0,   0.00,   0.00, 1013.3,    0.4, -999.0
06-12-2023, 00:15:29,    315,    0.0,    2.0,   0.00,   0.00, 1013.2,    0.5, -999.0
06-12-2023, 00:15:39,    315,    0.0,    2.0,   0.00,   0.00, 1013.3,    0.5, -999.0
06-12-2023, 00:15:49,    315,    0.0,    2.0,   0.00,   0.00, 1013.3,    0.4, -999.0
06-12-2023, 00:15:59,    315,    0.0,    2.0,   0.00,   0.00, 1013.3,    0.6, -999.0
06-12-2023, 00:16:09,    315,    0.0,    2.1,   0.00,   0.00, 1013.3,    0.6, -999.0
06-12-2023, 00:16:19,    315,    0.0,    2.1,   0.00,   0.00, 1013.3,    0.5, -999.0
06-12-2023, 00:16:29,    315,    0.0,    2.1,   0.00,   0.00, 1013.3,    0.4, -999.0
06-12-2023, 00:16:39,    316,    0.0,    2.0,   0.00,   0.00, 1013.3,    0.6, -999.0
06-12-2023, 00:16:49,    315,    0.0,    2.0,   0.00,   0.00, 1013.3,    0.4, -999.0
06-12-2023, 00:16:59,    315,    0.0,    2.0,   0.00,   0.00, 1013.3,    0.5, -999.0
06-12-2023, 00:17:09,    315,    0.0,    2.0,   0.00,   0.00, 1013.3,    0.5, -999.0
06-12-2023, 00:17:19,    315,    0.0,    2.0,   0.00,   0.00, 1013.3,    0.5, -999.0
06-12-2023, 00:17:29,    315,    0.0,    2.0,   0.00,   0.00, 1013.3,    0.5, -999.0
06-12-2023, 00:17:39,    315,    0.0,    2.0,   0.00,   0.00, 1013.3,    0.5, -999.0
06-12-2023, 00:17:49,    315,    0.0,    2.0,   0.00,   0.00, 1013.3,    0.5, -999.0
06-12-2023, 00:17:59,    315,    0.0,    2.1,   0.00,   0.00, 1013.3,    0.5, -999.0
06-12-2023, 00:18:09,    317,    0.0,    2.1,   0.00,   0.00, 1013.3,    0.4, -999.0
06-12-2023, 00:18:19,    315,    0.0,    2.0,   0.00,   0.00, 1013.3,    0.5, -999.0
06-12-2023, 00:18:29,    315,    0.0,    2.0,   0.00,   0.00, 1013.3,    0.4, -999.0
06-12-2023, 00:18:39,    315,    0.0,    2.1,   0.00,   0.00, 1013.3,    0.5, -999.0
06-12-2023, 00:18:49,    315,    0.0,    2.0,   0.00,   0.00, 1013.3,    0.5, -999.0
06-12-2023, 00:18:59,    315,    0.0,    2.0,   0.00,   0.00, 1013.3,    0.6, -999.0
06-12-2023, 00:19:09,    315,    0.0,    2.0,   0.00,   0.00, 1013.3,    0.6, -999.0
06-12-2023, 00:19:19,    315,    0.0,    2.1,   0.00,   0.00, 1013.3,    0.6, -999.0
06-12-2023, 00:19:29,    315,    0.0,    2.0,   0.00,   0.00, 1013.3,    0.5, -999.0
06-12-2023, 00:19:39,    315,    0.0,    2.0,   0.00,   0.00, 1013.3,    0.5, -999.0
06-12-2023, 00:19:49,    315,    0.0,    2.0,   0.00,   0.00, 1013.3,    0.5, -999.0
06-12-2023, 00:19:59,    315,    0.0,    2.0,   0.00,   0.00, 1013.3,    0.5, -999.0
06-12-2023, 00:20:09,    315,    0.3,    2.0,   0.00,   0.00, 1013.4,    0.7, -999.0
06-12-2023, 00:20:19,    315,    0.0,    2.1,   0.00,   0.00, 1013.3,    0.5, -999.0
06-12-2023, 00:20:29,    315,    0.0,    2.0,   0.00,   0.00, 1013.3,    0.5, -999.0
06-12-2023, 00:20:39,    315,    0.0,    2.0,   0.00,   0.00, 1013.3,    0.6, -999.0
06-12-2023, 00:20:48,    315,    0.0,    2.0,   0.00,   0.00, 1013.3,    0.6, -999.0
06-12-2023, 00:20:59,    315,    0.0,    2.0,   0.00,   0.00, 1013.3,    0.6, -999.0
06-12-2023, 00:21:09,    315,    0.0,    2.0,   0.00,   0.00, 1013.3,    0.6, -999.0
06-12-2023, 00:21:18,    315,    0.0,    2.0,   0.00,   0.00, 1013.3,    0.6, -999.0
06-12-2023, 00:21:28,    315,    0.0,    2.0,   0.00,   0.00, 1013.3,    0.4, -999.0
06-12-2023, 00:21:39,    314,    0.0,    2.0,   0.00,   0.00, 1013.3,    0.4, -999.0
06-12-2023, 00:21:49,    314,    0.0,    2.0,   0.00,   0.00, 1013.3,    0.7, -999.0
06-12-2023, 00:21:58,    314,    0.0,    2.0,   0.00,   0.00, 1013.3,    0.4, -999.0
06-12-2023, 00:22:08,    314,    0.0,    2.0,   0.00,   0.00, 1013.3,    0.4, -999.0
06-12-2023, 00:22:19,    314,    0.0,    2.0,   0.00,   0.00, 1013.3,    0.4, -999.0
06-12-2023, 00:22:28,    313,    0.0,    2.0,   0.00,   0.00, 1013.3,    0.3, -999.0
06-12-2023, 00:22:38,    313,    0.0,    2.0,   0.00,   0.00, 1013.3,    0.5, -999.0
06-12-2023, 00:22:48,    312,    0.0,    2.0,   0.00,   0.00, 1013.3,    0.5, -999.0
06-12-2023, 00:22:59,    312,    0.0,    2.0,   0.00,   0.00, 1013.3,    0.5, -999.0
06-12-2023, 00:23:08,    311,    0.0,    2.0,   0.00,   0.00, 1013.3,    0.3, -999.0
06-12-2023, 00:23:18,    311,    0.0,    2.0,   0.00,   0.00, 1013.3,    0.6, -999.0
06-12-2023, 00:23:29,    311,    0.1,    2.0,   0.00,   0.00, 1013.4,    0.5, -999.0
06-12-2023, 00:23:38,    311,    0.0,    1.9,   0.00,   0.00, 1013.3,    0.7, -999.0
06-12-2023, 00:23:48,    311,    0.0,    2.0,   0.00,   0.00, 1013.3,    0.2, -999.0
06-12-2023, 00:23:58,    312,    0.1,    2.0,   0.00,   0.00, 1013.3,    0.2, -999.0
06-12-2023, 00:24:08,    312,    0.1,    2.0,   0.00,   0.00, 1013.4,    0.2, -999.0
06-12-2023, 00:24:18,    311,    0.0,    2.0,   0.00,   0.00, 1013.3,    0.5, -999.0
06-12-2023, 00:24:28,    311,    0.0,    2.0,   0.00,   0.00, 1013.3,    0.5, -999.0
06-12-2023, 00:24:38,    311,    0.4,    2.0,   0.00,   0.00, 1013.4,    0.3, -999.0
06-12-2023, 00:24:48,    311,    0.3,    2.0,   0.00,   0.00, 1013.4,    0.7, -999.0
06-12-2023, 00:24:58,    311,    0.0,    1.9,   0.00,   0.00, 1013.3,    0.4, -999.0
06-12-2023, 00:25:08,    311,    0.4,    1.9,   0.00,   0.00, 1013.4,    0.9, -999.0
06-12-2023, 00:25:18,    306,    0.4,    2.1,   0.00,   0.00, 1013.5,    0.8, -999.0
06-12-2023, 00:25:28,    305,    0.0,    2.0,   0.00,   0.00, 1013.3,    0.6, -999.0
06-12-2023, 00:25:38,    305,    0.2,    2.0,   0.00,   0.00, 1013.4,    0.2, -999.0
06-12-2023, 00:25:48,    305,    0.5,    2.0,   0.00,   0.00, 1013.4,    0.7, -999.0
06-12-2023, 00:25:58,    304,    0.6,    2.0,   0.00,   0.00, 1013.4,    0.4, -999.0
06-12-2023, 00:26:08,    304,    0.0,    1.9,   0.00,   0.00, 1013.3,    0.6, -999.0
06-12-2023, 00:26:18,    304,    0.0,    1.9,   0.00,   0.00, 1013.3,    0.4, -999.0
06-12-2023, 00:26:28,    304,    0.0,    2.0,   0.00,   0.00, 1013.3,    0.6, -999.0
06-12-2023, 00:26:38,    304,    0.2,    1.9,   0.00,   0.00, 1013.4,    0.2, -999.0
06-12-2023, 00:26:48,    304,    0.0,    1.9,   0.00,   0.00, 1013.3,    0.3, -999.0
06-12-2023, 00:26:58,    304,    0.0,    1.9,   0.00,   0.00, 1013.3,    0.7, -999.0
06-12-2023, 00:27:08,    304,    0.0,    2.0,   0.00,   0.00, 1013.3,    0.3, -999.0
06-12-2023, 00:27:18,    304,    0.0,    2.0,   0.00,   0.00, 1013.3,    0.8, -999.0
06-12-2023, 00:27:28,    304,    0.0,    2.0,   0.00,   0.00, 1013.3,    0.6, -999.0
06-12-2023, 00:27:38,    304,    0.0,    2.0,   0.00,   0.00, 1013.3,    0.5, -999.0
06-12-2023, 00:27:48,    304,    0.3,    2.0,   0.00,   0.00, 1013.3,    0.5, -999.0
06-12-2023, 00:27:58,    304,    0.1,    2.0,   0.00,   0.00, 1013.4,    0.7, -999.0
06-12-2023, 00:28:08,    304,    0.0,    2.0,   0.00,   0.00, 1013.3,    0.1, -999.0
06-12-2023, 00:28:18,    304,    0.0,    1.9,   0.00,   0.00, 1013.3,    0.0, -999.0
06-12-2023, 00:28:28,    304,    0.0,    2.0,   0.00,   0.00, 1013.3,    0.0, -999.0
06-12-2023, 00:28:38,    304,    0.0,    2.0,   0.00,   0.00, 1013.3,    0.7, -999.0
06-12-2023, 00:28:48,    304,    0.0,    2.0,   0.00,   0.00, 1013.3,    0.6, -999.0
06-12-2023, 00:28:58,    303,    0.0,    1.9,   0.00,   0.00, 1013.3,    0.5, -999.0
06-12-2023, 00:29:08,    304,    0.0,    2.0,   0.00,   0.00, 1013.3,    0.8, -999.0
06-12-2023, 00:29:18,    303,    0.3,    2.0,   0.00,   0.00, 1013.4,    0.4, -999.0
06-12-2023, 00:29:28,    304,    0.0,    2.0,   0.00,   0.00, 1013.3,    0.6, -999.0
06-12-2023, 00:29:38,    303,    0.0,    1.9,   0.00,   0.00, 1013.3,    0.4, -999.0
06-12-2023, 00:29:48,    304,    0.0,    2.0,   0.00,   0.00, 1013.3,    0.6, -999.0
06-12-2023, 00:29:58,    304,    0.0,    1.9,   0.00,   0.00, 1013.3,    0.7, -999.0
06-12-2023, 00:30:08,    304,    0.2,    2.0,   0.00,   0.00, 1013.4,    0.7, -999.0
06-12-2023, 00:30:18,    304,    0.0,    1.9,   0.00,   0.00, 1013.3,    0.6, -999.0
06-12-2023, 00:30:28,    304,    0.0,    1.9,   0.00,   0.00, 1013.3,    0.6, -999.0
06-12-2023, 00:30:38,    304,    0.0,    1.9,   0.00,   0.00, 1013.3,    0.4, -999.0
06-12-2023, 00:30:48,    304,    0.0,    1.9,   0.00,   0.00, 1013.2,    0.4, -999.0
06-12-2023, 00:30:57,    303,    0.0,    1.9,   0.00,   0.00, 1013.2,    0.5, -999.0
06-12-2023, 00:31:08,    303,    0.0,    1.9,   0.00,   0.00, 1013.3,    0.5, -999.0
06-12-2023, 00:31:19,    303,    0.0,    1.9,   0.00,   0.00, 1013.2,    0.4, -999.0
06-12-2023, 00:31:28,    303,    0.0,    1.9,   0.00,   0.00, 1013.3,    0.6, -999.0
06-12-2023, 00:31:37,    303,    0.0,    1.9,   0.00,   0.00, 1013.3,    0.4, -999.0
06-12-2023, 00:31:48,    304,    0.0,    1.9,   0.00,   0.00, 1013.2,    0.6, -999.0
06-12-2023, 00:31:58,    303,    0.0,    1.9,   0.00,   0.00, 1013.2,    0.4, -999.0
06-12-2023, 00:32:07,    304,    0.0,    1.8,   0.00,   0.00, 1013.2,    0.5, -999.0
06-12-2023, 00:32:17,    304,    0.0,    1.9,   0.00,   0.00, 1013.2,    0.6, -999.0
06-12-2023, 00:32:28,    304,    0.0,    2.0,   0.00,   0.00, 1013.3,    0.4, -999.0
06-12-2023, 00:32:38,    304,    0.0,    1.9,   0.00,   0.00, 1013.2,    0.4, -999.0
06-12-2023, 00:32:47,    304,    0.0,    1.9,   0.00,   0.00, 1013.2,    0.7, -999.0
06-12-2023, 00:32:57,    303,    0.0,    1.9,   0.00,   0.00, 1013.2,    0.5, -999.0
06-12-2023, 00:33:08,    304,    0.0,    1.9,   0.00,   0.00, 1013.2,    0.4, -999.0
06-12-2023, 00:33:17,    304,    0.0,    1.9,   0.00,   0.00, 1013.2,    0.5, -999.0
06-12-2023, 00:33:27,    303,    0.3,    2.0,   0.00,   0.00, 1013.3,    0.4, -999.0
06-12-2023, 00:33:37,    315,    0.0,    1.9,   0.00,   0.00, 1013.2,    0.7, -999.0
06-12-2023, 00:33:48,    315,    0.3,    1.9,   0.00,   0.00, 1013.3,    0.7, -999.0
06-12-2023, 00:33:57,    315,    0.0,    1.9,   0.00,   0.00, 1013.2,    0.6, -999.0
06-12-2023, 00:34:07,    315,    0.1,    1.9,   0.00,   0.00, 1013.2,    0.8, -999.0
06-12-2023, 00:34:17,    315,    0.1,    1.9,   0.00,   0.00, 1013.2,    0.7, -999.0
06-12-2023, 00:34:27,    315,    0.0,    1.8,   0.00,   0.00, 1013.1,    0.3, -999.0
06-12-2023, 00:34:37,    315,    0.0,    1.8,   0.00,   0.00, 1013.2,    0.3, -999.0
06-12-2023, 00:34:47,    315,    0.0,    1.8,   0.00,   0.00, 1013.2,    0.3, -999.0
06-12-2023, 00:34:57,    314,    0.0,    1.8,   0.00,   0.00, 1013.2,    0.5, -999.0
06-12-2023, 00:35:07,    315,    0.0,    1.8,   0.00,   0.00, 1013.2,    0.5, -999.0
06-12-2023, 00:35:17,    315,    0.0,    1.8,   0.00,   0.00, 1013.2,    0.6, -999.0
06-12-2023, 00:35:27,    315,    0.0,    1.9,   0.00,   0.00, 1013.2,    0.4, -999.0
06-12-2023, 00:35:37,    315,    0.3,    2.0,   0.00,   0.00, 1013.3,    0.6, -999.0
06-12-2023, 00:35:47,    315,    0.0,    1.9,   0.00,   0.00, 1013.2,    0.6, -999.0
06-12-2023, 00:35:57,    316,    0.0,    1.8,   0.00,   0.00, 1013.2,    0.5, -999.0
06-12-2023, 00:36:07,    315,    0.0,    1.8,   0.00,   0.00, 1013.2,    0.5, -999.0
06-12-2023, 00:36:17,    316,    0.0,    1.8,   0.00,   0.00, 1013.2,    0.5, -999.0
06-12-2023, 00:36:27,    316,    0.0,    1.8,   0.00,   0.00, 1013.2,    0.4, -999.0
06-12-2023, 00:36:37,    316,    0.0,    1.9,   0.00,   0.00, 1013.1,    0.4, -999.0
06-12-2023, 00:36:47,    316,    0.0,    1.9,   0.00,   0.00, 1013.1,    0.5, -999.0
06-12-2023, 00:36:57,    316,    0.0,    1.9,   0.00,   0.00, 1013.2,    0.6, -999.0
06-12-2023, 00:37:07,    316,    0.0,    1.9,   0.00,   0.00, 1013.2,    0.6, -999.0
06-12-2023, 00:37:17,    316,    0.0,    1.8,   0.00,   0.00, 1013.2,    0.4, -999.0
06-12-2023, 00:37:27,    316,    0.4,    2.0,   0.00,   0.00, 1013.3,    0.4, -999.0
06-12-2023, 00:37:37,    316,    0.0,    1.9,   0.00,   0.00, 1013.2,    0.4, -999.0
06-12-2023, 00:37:47,    316,    0.0,    1.8,   0.00,   0.00, 1013.2,    0.4, -999.0
06-12-2023, 00:37:57,    316,    0.0,    1.9,   0.00,   0.00, 1013.2,    0.6, -999.0
06-12-2023, 00:38:07,    316,    0.0,    1.8,   0.00,   0.00, 1013.2,    0.5, -999.0
06-12-2023, 00:38:17,    316,    0.0,    1.9,   0.00,   0.00, 1013.2,    0.6, -999.0
06-12-2023, 00:38:27,    315,    0.0,    1.9,   0.00,   0.00, 1013.2,    0.6, -999.0
06-12-2023, 00:38:37,    316,    0.0,    1.7,   0.00,   0.00, 1013.2,    0.7, -999.0
06-12-2023, 00:38:47,    315,    0.0,    1.9,   0.00,   0.00, 1013.2,    0.6, -999.0
06-12-2023, 00:38:57,    315,    0.0,    1.9,   0.00,   0.00, 1013.2,    0.5, -999.0
06-12-2023, 00:39:07,    316,    0.0,    1.9,   0.00,   0.00, 1013.2,    0.7, -999.0
06-12-2023, 00:39:17,    316,    0.0,    1.8,   0.00,   0.00, 1013.2,    0.4, -999.0
06-12-2023, 00:39:27,    315,    0.0,    1.9,   0.00,   0.00, 1013.2,    0.4, -999.0
06-12-2023, 00:39:37,    316,    0.0,    1.9,   0.00,   0.00, 1013.2,    0.4, -999.0
06-12-2023, 00:39:47,    315,    0.0,    1.8,   0.00,   0.00, 1013.3,    0.5, -999.0
06-12-2023, 00:39:57,    316,    0.0,    1.9,   0.00,   0.00, 1013.3,    0.4, -999.0
06-12-2023, 00:40:07,    316,    0.0,    1.9,   0.00,   0.00, 1013.3,    0.6, -999.0
06-12-2023, 00:40:17,    315,    0.0,    1.7,   0.00,   0.00, 1013.2,    0.5, -999.0
06-12-2023, 00:40:27,    316,    0.0,    1.8,   0.00,   0.00, 1013.2,    0.5, -999.0
06-12-2023, 00:40:36,    316,    0.0,    1.9,   0.00,   0.00, 1013.2,    0.7, -999.0
06-12-2023, 00:40:47,    316,    0.0,    1.8,   0.00,   0.00, 1013.2,    0.3, -999.0
06-12-2023, 00:40:57,    315,    0.0,    1.9,   0.00,   0.00, 1013.2,    0.6, -999.0
06-12-2023, 00:41:07,    315,    0.0,    1.8,   0.00,   0.00, 1013.3,    0.6, -999.0
06-12-2023, 00:41:16,    315,    0.0,    1.8,   0.00,   0.00, 1013.3,    0.3, -999.0
06-12-2023, 00:41:27,    316,    0.0,    1.9,   0.00,   0.00, 1013.3,    0.5, -999.0
06-12-2023, 00:41:37,    315,    0.0,    1.9,   0.00,   0.00, 1013.3,    0.5, -999.0
06-12-2023, 00:41:46,    315,    0.0,    1.8,   0.00,   0.00, 1013.2,    0.6, -999.0
06-12-2023, 00:41:56,    315,    0.0,    1.8,   0.00,   0.00, 1013.3,    0.7, -999.0
06-12-2023, 00:42:07,    315,    0.0,    1.8,   0.00,   0.00, 1013.3,    0.4, -999.0
06-12-2023, 00:42:17,    315,    0.0,    1.8,   0.00,   0.00, 1013.3,    0.6, -999.0
06-12-2023, 00:42:26,    316,    0.0,    1.9,   0.00,   0.00, 1013.2,    0.5, -999.0
06-12-2023, 00:42:36,    317,    0.0,    1.9,   0.00,   0.00, 1013.3,    0.5, -999.0
06-12-2023, 00:42:47,    316,    0.0,    1.8,   0.00,   0.00, 1013.2,    0.3, -999.0
06-12-2023, 00:42:57,    315,    0.0,    1.9,   0.00,   0.00, 1013.2,    0.7, -999.0
06-12-2023, 00:43:06,    315,    0.0,    1.9,   0.00,   0.00, 1013.2,    0.5, -999.0
06-12-2023, 00:43:16,    316,    0.0,    1.8,   0.00,   0.00, 1013.3,    0.5, -999.0
06-12-2023, 00:43:27,    316,    0.0,    1.8,   0.00,   0.00, 1013.2,    0.4, -999.0
06-12-2023, 00:43:36,    315,    0.0,    1.8,   0.00,   0.00, 1013.3,    0.5, -999.0
06-12-2023, 00:43:46,    315,    0.0,    1.9,   0.00,   0.00, 1013.2,    0.5, -999.0
06-12-2023, 00:43:56,    316,    0.0,    1.9,   0.00,   0.00, 1013.2,    0.4, -999.0
06-12-2023, 00:44:06,    315,    0.0,    1.9,   0.00,   0.00, 1013.2,    0.4, -999.0
06-12-2023, 00:44:16,    315,    0.0,    1.8,   0.00,   0.00, 1013.2,    0.5, -999.0
06-12-2023, 00:44:26,    315,    0.0,    1.8,   0.00,   0.00, 1013.2,    0.4, -999.0
06-12-2023, 00:44:37,    316,    0.0,    1.8,   0.00,   0.00, 1013.2,    0.7, -999.0
06-12-2023, 00:44:46,    315,    0.0,    1.8,   0.00,   0.00, 1013.2,    0.6, -999.0
06-12-2023, 00:44:56,    315,    0.0,    1.9,   0.00,   0.00, 1013.2,    0.6, -999.0
06-12-2023, 00:45:06,    315,    0.0,    1.9,   0.00,   0.00, 1013.2,    0.5, -999.0
06-12-2023, 00:45:16,    316,    0.0,    1.8,   0.00,   0.00, 1013.2,    0.5, -999.0
06-12-2023, 00:45:26,    315,    0.0,    1.8,   0.00,   0.00, 1013.2,    0.6, -999.0
06-12-2023, 00:45:36,    316,    0.0,    2.0,   0.00,   0.00, 1013.2,    0.3, -999.0
06-12-2023, 00:45:46,    316,    0.0,    1.9,   0.00,   0.00, 1013.2,    0.7, -999.0
06-12-2023, 00:45:56,    315,    0.0,    1.8,   0.00,   0.00, 1013.2,    0.5, -999.0
06-12-2023, 00:46:06,    316,    0.0,    1.8,   0.00,   0.00, 1013.3,    0.5, -999.0
06-12-2023, 00:46:16,    315,    0.0,    1.9,   0.00,   0.00, 1013.2,    0.5, -999.0
06-12-2023, 00:46:26,    315,    0.0,    1.9,   0.00,   0.00, 1013.3,    0.6, -999.0
06-12-2023, 00:46:36,    316,    0.0,    1.9,   0.00,   0.00, 1013.2,    0.5, -999.0
06-12-2023, 00:46:46,    315,    0.0,    1.8,   0.00,   0.00, 1013.3,    0.4, -999.0